Regional Weather Roundup
Issued by NWS Tiyan, Guam

Home | Current Version | Previous Version | Text Only | Print | Product List | Glossary On
Versions: 1 2 3 4 5 6 7 8 9 10 11 12 13 14 15 16 17 18 19 20 21 22 23 24 25 26 27 28 29 30 31 32 33 34 35 36 37 38 39 40 41 42 43 44 45
000
ASGM40 PGUM 220012
RWRGUM
WEATHER ROUNDUP FOR THE MARIANAS
NATIONAL WEATHER SERVICE TIYAN GU
1000 AM CHST WED OCT 22 2014

GUZ001>004-220100-
MARIANA ISLANDS-

CITY           SKY/WX    TMP DP  RH WIND       PRES   REMARKS
GUAM AIRPORT   MOSUNNY   86  75  70 E9        29.85S HX  95
ANDERSEN AFB   MOSUNNY   84  75  74 E8        29.85S HX  92
ROTA AIRPORT   MOSUNNY   82  75  78 E7        29.86R
TINIAN AP      MOSUNNY   86  75  70 E7        29.84S HX  95
SAIPAN AP      MOSUNNY   86  75  70 E8        29.85F HX  95

$$




USA.gov is the U.S. government's official web portal to all federal, state and local government web resources and services.